Weather History for KPIT - December, 2011

Change the Weather History Date:

Monday, December 26, 2011

  Actual Average Record
Temperature  
Mean Temperature 37 °F 30 °F  
Max Temperature 41 °F 37 °F 68 °F (1875)
Min Temperature 32 °F 23 °F -6 °F (1983)
Degree Days  
Heating Degree Days 28 35  
Month to date heating degree days 701 834  
Since 1 July heating degree days 1696 1997  
Cooling Degree Days 0 0  
Month to date cooling degree days 0 0  
Year to date cooling degree days 1009 736  
Moisture  
Dew Point 25 °F    
Average Humidity 64    
Maximum Humidity 78    
Minimum Humidity 50    
Precipitation  
Precipitation T in 0.09 in 1.13 in (1875)
Month to date precipitation 1.66 2.41  
Year to date precipitation 43.43 37.75  
Snow  
Snow T in 0.30 in 9.00 in (1913)
Month to date snowfall 0.9 6.7  
Since 1 July snowfall 2.5 9.1  
Snow Depth 0.00 in    
Sea Level Pressure  
Sea Level Pressure 30.27 in    
Wind  
Wind Speed 7 mph (WSW)    
Max Wind Speed 20 mph    
Max Gust Speed 24 mph    
Visibility 10 miles    
Events      
T = Trace of Precipitation, MM = Missing Value Source: NWS Daily Summary

Daily Weather History Graph

Daily Weather History Graph

Search for Another Location

Airport or City:

Trip Planner

Search our weather history database for the weather conditions in past years. The results will help you decide how hot, cold, wet, or windy it might be!

Date:

Astronomy

Dec. 26, 2011 Rise Set
Actual Time 7:42 AM EST 5:00 PM EST
Civil Twilight 7:11 AM EST 5:30 PM EST
Nautical Twilight 6:37 AM EST 6:05 PM EST
Astronomical Twilight 6:04 AM EST 6:38 PM EST
Moon 9:01 AM EST (12/26) 7:26 PM EST (12/26)
Length of Visible Light 10h 19m
Length of Day
9h 17m
Waxing Crescent, 5% of the Moon is Illuminated
Dec 26
Waxing Crescent
Jan 1
First Quarter
Jan 9
Full
Jan 16
Last Quarter
Jan 23
New

Hourly Weather History & Observations

Time (EST) Temp. Windchill Dew Point Humidity Pressure Visibility Wind Dir Wind Speed Gust Speed Precip Events Conditions
12:51 AM 37.0 °F 29.3 °F 25.0 °F 62% 30.20 in 10.0 mi West 11.5 mph - 0.00 in   Overcast
1:51 AM 37.0 °F 29.3 °F 25.0 °F 62% 30.23 in 10.0 mi West 11.5 mph - N/A   Overcast
2:51 AM 37.4 °F 29.3 °F 24.8 °F 60% 30.22 in 10.0 mi West 12.7 mph - N/A   Overcast
3:51 AM 36.0 °F 29.6 °F 26.1 °F 67% 30.27 in 10.0 mi West 8.1 mph - N/A   Overcast
4:51 AM 36.0 °F 28.5 °F 27.0 °F 70% 30.28 in 10.0 mi West 10.4 mph - N/A   Overcast
5:51 AM 36.0 °F 28.0 °F 26.1 °F 67% 30.31 in 10.0 mi West 11.5 mph - 0.00 in   Overcast
6:51 AM 35.1 °F 27.9 °F 26.1 °F 70% 30.34 in 10.0 mi West 9.2 mph - N/A   Mostly Cloudy
7:51 AM 32.0 °F 25.6 °F 26.1 °F 79% 30.38 in 10.0 mi West 6.9 mph - N/A   Scattered Clouds
8:51 AM 34.0 °F 29.8 °F 26.1 °F 73% 30.38 in 10.0 mi WSW 4.6 mph - N/A   Overcast
9:51 AM 35.1 °F 30.1 °F 27.0 °F 72% 30.40 in 10.0 mi West 5.8 mph - N/A   Overcast
10:51 AM 37.0 °F 29.3 °F 25.0 °F 62% 30.41 in 10.0 mi WNW 11.5 mph - N/A   Overcast
11:51 AM 37.0 °F 31.6 °F 23.0 °F 57% 30.38 in 10.0 mi West 6.9 mph - N/A   Overcast
12:51 PM 37.9 °F 33.5 °F 23.0 °F 55% 30.34 in 10.0 mi SW 5.8 mph - N/A   Partly Cloudy
1:51 PM 39.9 °F 37.8 °F 23.0 °F 51% 30.32 in 10.0 mi Variable 3.5 mph - N/A   Scattered Clouds
2:51 PM 41.0 °F 34.7 °F 24.1 °F 51% 30.30 in 10.0 mi SSW 10.4 mph - N/A   Scattered Clouds
3:51 PM 41.0 °F 35.2 °F 24.1 °F 51% 30.30 in 10.0 mi SSW 9.2 mph - N/A   Mostly Cloudy
4:51 PM 39.9 °F - 24.1 °F 53% 30.26 in 10.0 mi Calm Calm - N/A   Mostly Cloudy
5:51 PM 35.1 °F 32.2 °F 24.1 °F 64% 30.24 in 10.0 mi ESE 3.5 mph - N/A   Scattered Clouds
6:51 PM 35.1 °F 31.0 °F 24.1 °F 64% 30.22 in 10.0 mi South 4.6 mph - N/A   Partly Cloudy
7:51 PM 35.1 °F 32.2 °F 24.1 °F 64% 30.21 in 10.0 mi South 3.5 mph - N/A   Scattered Clouds
8:51 PM 36.0 °F - 24.1 °F 62% 30.18 in 10.0 mi Calm Calm - N/A   Overcast
9:51 PM 34.0 °F 28.8 °F 25.0 °F 70% 30.15 in 10.0 mi SE 5.8 mph - N/A   Overcast
10:51 PM 33.1 °F 30.0 °F 25.0 °F 72% 30.10 in 10.0 mi ESE 3.5 mph - N/A   Overcast
11:51 PM 35.1 °F - 25.0 °F 67% 30.06 in 10.0 mi Calm Calm - N/A   Overcast